Location: Melbourne
(37.8666°S, 145.1333°E)
Time: 18:19:52
(UTC+11:00)

Amateur Radio Satellites - All Passes

Search period start: 03 March 2015 17:49
Search period end: 04 March 2015 17:49
Location: Melbourne, 37.8666°S, 145.1333°E

Satellite Date Start Highest point End Downlink Frequencies (MHz)
Time Altitude Azimuth
JUGNU 03 Mar 17:56:08 17:58:11 12° 354° (N) 18:00:12 437.505
SRMSAT 03 Mar 17:57:46 18:00:15 13° 3° (N) 18:02:45 437.500
PRISM 03 Mar 18:05:25 18:08:16 18° 112° (ESE) 18:11:15 437.425
M-CUBED/EXP-1 PRIME 03 Mar 18:09:03 18:11:43 14° 275° (W) 18:14:08 437.505
AUBIESAT-1 03 Mar 18:10:38 18:13:29 15° 275° (W) 18:16:05 437.475
YUBILEINY 03 Mar 18:16:23 18:23:14 25° 264° (W) 18:29:41 435.215
JAS-2 03 Mar 18:26:24 18:31:47 51° 252° (WSW) 18:36:49 435.910
AO-7 03 Mar 18:27:59 18:36:08 54° 247° (WSW) 18:44:11 29.400- 29.500
MOZHAYETS 4 03 Mar 18:41:41 18:44:14 14° 269° (W) 18:46:34
Cubesat XI-IV 03 Mar 18:45:38 18:49:50 24° 87° (E) 18:54:09 437.490
CUTE-I 03 Mar 18:54:17 18:58:50 28° 85° (E) 19:03:28 437.470
CUBESAT XI-V 03 Mar 19:01:34 19:06:14 74° 104° (ESE) 19:10:55 437.345
PCSat 03 Mar 19:10:43 19:16:12 84° 116° (ESE) 19:21:38 145.827
STRAND 1 03 Mar 19:13:21 19:18:24 62° 106° (ESE) 19:23:31 437.568
AIST 1 03 Mar 19:31:00 19:34:19 22° 90° (E) 19:37:45
RS-15 03 Mar 19:31:56 19:41:45 29° 148° (SSE) 19:51:25 29.354- 29.394
PRISM 03 Mar 19:39:41 19:43:33 34° 277° (W) 19:47:25 437.425
SRMSAT 03 Mar 19:46:39 19:48:35 12° 353° (N) 19:50:28 437.500
AO-7 03 Mar 20:25:03 20:27:15 11° 227° (SW) 20:28:53 29.400- 29.500
Cubesat XI-IV 03 Mar 20:25:04 20:30:07 41° 250° (WSW) 20:35:05 437.490
GONETS M04 03 Mar 20:32:24 20:37:39 18° 119° (ESE) 20:43:23
CUTE-I 03 Mar 20:34:06 20:38:58 34° 249° (WSW) 20:43:44 437.470
CANX-2 03 Mar 20:53:25 20:54:01 10° 92° (E) 20:54:55 2200.000
STRAND 1 03 Mar 20:55:19 20:58:07 14° 269° (W) 21:00:39 437.568
BRITE-PL 03 Mar 20:55:22 20:59:42 25° 87° (E) 21:04:18 437.365/2234.400
PCSat 03 Mar 20:57:16 20:58:59 11° 284° (WNW) 21:00:20 145.827
GOMX 1 03 Mar 20:59:07 21:02:39 18° 89° (E) 21:06:27 467.674
AIST 1 03 Mar 21:08:09 21:11:53 26° 255° (WSW) 21:15:33
CUTE 1.7 + AOD 2 03 Mar 21:10:15 21:12:48 16° 89° (E) 21:15:29 437.475
O/OREOS (USA 219) 03 Mar 21:10:24 21:12:17 13° 80° (E) 21:14:24 437.305
ISS 03 Mar 21:15:04 21:18:06 34° 46° (NE) 21:21:12 145.825
HO-68 03 Mar 21:21:00 21:27:14 32° 85° (E) 21:33:32 435.675
DOVE 4 03 Mar 21:31:43 21:36:05 26° 87° (E) 21:40:35 437.250
CINEMA 3 03 Mar 21:38:14 21:41:11 16° 91° (E) 21:44:21 145.822/145.860
RS-15 03 Mar 21:44:22 21:56:15 87° 120° (ESE) 22:07:26 29.354- 29.394
Oscar 11 03 Mar 21:48:49 21:50:17 12° 91° (E) 21:52:00 145.826/435.025
AAUSAT CUBESAT 2 03 Mar 21:51:48 21:55:27 27° 85° (E) 21:59:05 437.432
COMPASS 1 03 Mar 21:54:31 21:58:25 34° 83° (E) 22:02:18 437.405
CUBEBUG 2 03 Mar 21:57:13 21:59:13 13° 92° (E) 22:01:31 437.445
UNISAT 6 03 Mar 22:01:17 22:03:54 16° 114° (ESE) 22:06:46 437.425
QB50P1 03 Mar 22:17:43 22:18:45 11° 115° (ESE) 22:20:02 145.935-145.965
QB50P2 03 Mar 22:21:01 22:22:42 12° 114° (ESE) 22:24:37 145.880/145.840
SEEDS 03 Mar 22:22:12 22:26:33 88° 248° (WSW) 22:30:49 437.485
TIGRISAT 03 Mar 22:24:50 22:28:36 26° 111° (ESE) 22:32:33 435.000
CANX-2 03 Mar 22:26:10 22:30:28 60° 255° (WSW) 22:34:42 2200.000
DANDE 03 Mar 22:26:24 22:31:12 17° 120° (ESE) 22:36:33 436.750
GONETS M04 03 Mar 22:27:04 22:36:00 90° 295° (WNW) 22:44:46
FUNcube-1 03 Mar 22:32:39 22:36:03 20° 88° (E) 22:39:31 145.935
BRITE-PL 03 Mar 22:33:16 22:38:19 41° 253° (WSW) 22:43:32 437.365/2234.400
ZACube-1 03 Mar 22:33:58 22:37:29 21° 88° (E) 22:41:03 437.345
DUCHIFAT 1 03 Mar 22:34:38 22:37:19 17° 112° (ESE) 22:40:10 145.980
GOMX 1 03 Mar 22:35:51 22:41:05 55° 254° (WSW) 22:46:27 467.674
ANTELSAT 03 Mar 22:38:10 22:42:23 37° 108° (ESE) 22:46:46 437.575/2403.000
UKube-1 03 Mar 22:41:20 22:44:33 20° 87° (E) 22:47:53 .
CUTE 1.7 + AOD 2 03 Mar 22:44:52 22:48:58 40° 253° (WSW) 22:52:58 437.475
O/OREOS (USA 219) 03 Mar 22:46:50 22:51:17 53° 246° (WSW) 22:55:45 437.305
ISS 03 Mar 22:51:42 22:54:35 26° 210° (SSW) 22:57:29 145.825
CUSAT 1 03 Mar 22:52:47 22:59:47 29° 113° (ESE) 23:06:50 437.405
UWE-3 03 Mar 22:53:20 22:57:53 43° 83° (E) 23:02:21 435.000/436.395/437.385
POLYITAN 1 03 Mar 22:54:16 22:57:55 29° 109° (ESE) 23:01:42 437.675
POPSAT HIP 1 03 Mar 22:54:36 22:58:14 28° 110° (ESE) 23:01:58 437.405
DELFI C3 03 Mar 22:56:40 23:00:46 57° 80° (E) 23:04:47 145.870
SO-50 03 Mar 23:03:33 23:07:29 31° 129° (SE) 23:11:25 436.795
HO-68 03 Mar 23:08:18 23:15:09 46° 248° (WSW) 23:21:52 435.675
DOVE 4 03 Mar 23:09:03 23:13:54 37° 252° (WSW) 23:18:45 437.250
CINEMA 3 03 Mar 23:13:47 23:18:47 56° 254° (WSW) 23:23:43 145.822/145.860
NANOSAT C BR1 03 Mar 23:17:03 23:21:10 51° 106° (ESE) 23:25:22 145.865
Oscar 11 03 Mar 23:22:34 23:26:55 55° 255° (WSW) 23:31:10 145.826/435.025
AAUSAT CUBESAT 2 03 Mar 23:27:36 23:30:59 22° 250° (WSW) 23:34:13 437.432
COMPASS 1 03 Mar 23:30:52 23:33:54 18° 248° (WSW) 23:36:47 437.405
CUBEBUG 2 03 Mar 23:31:36 23:36:25 62° 255° (WSW) 23:41:08 437.445
UNISAT 6 03 Mar 23:35:49 23:40:17 51° 279° (W) 23:44:54 437.425
DX 1 03 Mar 23:47:30 23:51:56 66° 255° (WSW) 23:56:18 434.975-435.025
QB50P1 03 Mar 23:49:56 23:54:09 63° 281° (W) 23:58:26 145.935-145.965
AISAT 03 Mar 23:52:55 23:57:24 56° 80° (E) 00:01:52 437.250
QB50P2 03 Mar 23:54:00 23:58:11 55° 280° (W) 00:02:26 145.880/145.840
CUBEBUG 1 03 Mar 23:55:22 23:58:57 24° 86° (E) 00:02:36 437.445
BUGSAT 1 03 Mar 23:57:53 00:01:56 69° 281° (WNW) 00:06:02 437.445
RS-15 03 Mar 23:59:06 00:07:19 22° 282° (WNW) 00:14:37 29.354- 29.394
50 SAT 04 Mar 00:00:49 00:05:00 71° 79° (E) 00:09:05 437.505
TIGRISAT 04 Mar 00:01:18 00:05:18 28° 274° (W) 00:09:19 435.000
VELOX 1 04 Mar 00:02:11 00:06:44 70° 78° (ENE) 00:11:13 145.980
DANDE 04 Mar 00:07:27 00:16:03 76° 100° (E) 00:24:31 436.750
FUNcube-1 04 Mar 00:08:13 00:12:32 36° 252° (WSW) 00:16:43 145.935
HUMSAT D 04 Mar 00:08:52 00:13:17 65° 256° (WSW) 00:17:34 437.325/437.525
DUCHIFAT 1 04 Mar 00:08:55 00:12:53 38° 278° (W) 00:16:54 145.980
ZACube-1 04 Mar 00:09:41 00:13:57 35° 251° (WSW) 00:18:06 437.345
ANTELSAT 04 Mar 00:15:55 00:19:21 20° 272° (W) 00:22:44 437.575/2403.000
UKube-1 04 Mar 00:16:50 00:20:48 32° 251° (WSW) 00:24:41 .
ESTCUBE 1 04 Mar 00:19:44 00:24:11 51° 81° (E) 00:28:35 437.505/2401.250
GONETS M04 04 Mar 00:26:38 00:31:45 16° 260° (W) 00:36:15
SPROUT 04 Mar 00:26:53 00:28:49 13° 90° (E) 00:30:58 437.525
TISAT 1 04 Mar 00:29:20 00:30:51 12° 91° (E) 00:32:37 437.305
POLYITAN 1 04 Mar 00:30:33 00:33:54 22° 274° (W) 00:37:12 437.675
UWE-3 04 Mar 00:30:43 00:34:06 19° 247° (WSW) 00:37:19 435.000/436.395/437.385
POPSAT HIP 1 04 Mar 00:30:48 00:34:09 22° 274° (W) 00:37:27 437.405
DELFI C3 04 Mar 00:34:17 00:35:31 11° 246° (WSW) 00:36:30 145.870
CUSAT 1 04 Mar 00:34:56 00:43:18 64° 275° (W) 00:51:12 437.405
SO-50 04 Mar 00:44:17 00:47:53 24° 293° (WNW) 00:51:25 436.795
Oscar 19 04 Mar 00:55:32 00:59:10 20° 114° (ESE) 01:03:00 437.125/150
NANOSAT C BR1 04 Mar 00:55:42 00:57:26 12° 269° (W) 00:58:57 145.865
AISAT 04 Mar 01:31:15 01:33:36 14° 245° (WSW) 01:35:44 437.250
CUBEBUG 1 04 Mar 01:31:30 01:35:20 28° 251° (WSW) 01:39:03 437.445
VELOX 1 04 Mar 01:41:22 01:42:47 11° 244° (WSW) 01:43:56 145.980
DANDE 04 Mar 01:52:13 01:58:48 24° 265° (W) 02:04:56 436.750
SWISSCUBE 04 Mar 01:57:05 02:00:29 20° 88° (E) 02:04:01 437.505
ESTCUBE 1 04 Mar 01:58:02 02:00:41 15° 246° (WSW) 02:03:07 437.505/2401.250
SPROUT 04 Mar 02:01:00 02:05:17 50° 254° (WSW) 02:09:31 437.525
TISAT 1 04 Mar 02:02:49 02:07:04 53° 254° (WSW) 02:11:15 437.305
BEESAT 04 Mar 02:05:24 02:09:04 22° 87° (E) 02:12:50 436.000
Gurwin Techsat 1B 04 Mar 02:09:31 02:13:46 25° 113° (ESE) 02:18:10 435.225
CUSAT 1 04 Mar 02:22:19 02:24:55 11° 259° (W) 02:26:45 437.405
ITUPSAT 1 04 Mar 02:32:30 02:37:05 41° 82° (E) 02:41:37 437.325
ITAMSAT 1 04 Mar 02:32:47 02:37:51 56° 107° (ESE) 02:42:59 435.822/435.867
Oscar 19 04 Mar 02:33:11 02:38:11 48° 279° (W) 02:43:16 437.125/150
HORYU 2 04 Mar 03:07:11 03:10:35 22° 112° (ESE) 03:14:07 437.375
YUBILEINY 04 Mar 03:26:29 03:29:31 13° 102° (ESE) 03:33:18 435.215
AO-7 04 Mar 03:32:49 03:40:14 39° 117° (ESE) 03:47:51 29.400- 29.500
SWISSCUBE 04 Mar 03:34:02 03:38:33 40° 251° (WSW) 03:42:59 437.505
BEESAT 04 Mar 03:42:37 03:47:03 35° 251° (WSW) 03:51:22 436.000
KKS-1 04 Mar 03:42:48 03:47:11 45° 81° (E) 03:51:32 437.445
ISS 04 Mar 03:44:15 03:47:07 26° 151° (SSE) 03:49:59 145.825
STARS 04 Mar 03:47:50 03:51:54 32° 83° (E) 03:55:57 437.465
Gurwin Techsat 1B 04 Mar 03:48:36 03:53:34 38° 277° (W) 03:58:34 435.225
ITUPSAT 1 04 Mar 04:11:11 04:14:42 20° 247° (WSW) 04:18:04 437.325
ITAMSAT 1 04 Mar 04:14:30 04:17:47 16° 270° (W) 04:20:51 435.822/435.867
JAS-2 04 Mar 04:34:00 04:41:23 57° 107° (ESE) 04:48:10 435.910
HORYU 2 04 Mar 04:42:55 04:47:03 34° 277° (W) 04:51:13 437.375
VERMONT LUNAR 04 Mar 04:56:09 04:57:52 13° 35° (NE) 04:59:40 437.305
MOZHAYETS 4 04 Mar 05:00:43 05:03:10 15° 90° (E) 05:05:49
YUBILEINY 04 Mar 05:16:19 05:25:06 78° 85° (E) 05:33:55 435.215
KKS-1 04 Mar 05:20:31 05:23:30 17° 247° (WSW) 05:26:18 437.445
ISS 04 Mar 05:20:32 05:23:36 34° 314° (NW) 05:26:38 145.825
STARS 04 Mar 05:24:40 05:28:12 22° 248° (WSW) 05:31:37 437.465
AO-7 04 Mar 05:25:00 05:32:56 46° 279° (W) 05:40:52 29.400- 29.500
BEESAT 3 04 Mar 05:36:25 05:39:59 33° 65° (ENE) 05:43:35 437.485
M-CUBED/EXP-1 PRIME 04 Mar 05:51:12 05:55:05 61° 75° (ENE) 05:58:37 437.505
AUBIESAT-1 04 Mar 05:52:33 05:56:22 55° 76° (ENE) 05:59:51 437.475
BEESAT 2 04 Mar 06:02:26 06:06:21 57° 62° (ENE) 06:10:16 435.950
AIST 2 04 Mar 06:05:10 06:08:13 21° 68° (ENE) 06:11:22 435.215
Cubesat XI-IV 04 Mar 06:05:49 06:10:31 33° 111° (ESE) 06:15:20 437.490
CUTE-I 04 Mar 06:14:19 06:19:14 39° 110° (ESE) 06:24:13 437.470
JAS-2 04 Mar 06:20:24 06:26:42 27° 273° (W) 06:32:24 435.910
VERMONT LUNAR 04 Mar 06:31:58 06:35:22 63° 22° (NNE) 06:38:47 437.305
MOZHAYETS 4 04 Mar 06:36:16 06:40:46 49° 254° (WSW) 06:45:11
PHONESAT 2.4 04 Mar 06:41:33 06:44:54 39° 26° (NNE) 06:48:19 2401.200-2431.200
CUBESAT XI-V 04 Mar 07:01:01 07:04:31 21° 87° (E) 07:08:07 437.345
BEESAT 3 04 Mar 07:15:07 07:18:10 20° 229° (SW) 07:21:07 437.485
AIST 1 04 Mar 07:16:26 07:20:44 60° 99° (E) 07:25:01
YUBILEINY 04 Mar 07:16:33 07:23:03 21° 244° (WSW) 07:29:09 435.215
O/OREOS (USA 219) 04 Mar 07:20:06 07:23:24 20° 122° (ESE) 07:26:48 437.305
PRISM 04 Mar 07:24:04 07:27:54 35° 83° (E) 07:31:44 437.425
STRAND 1 04 Mar 07:26:24 07:30:30 24° 86° (E) 07:34:41 437.568
AUBIESAT-1 04 Mar 07:30:03 07:30:42 10° 239° (WSW) 07:31:10 437.475
BEESAT 2 04 Mar 07:42:46 07:44:55 14° 225° (SW) 07:46:55 435.950
AIST 2 04 Mar 07:43:00 07:46:40 31° 232° (SW) 07:50:18 435.215
Cubesat XI-IV 04 Mar 07:46:00 07:50:39 29° 275° (W) 07:55:14 437.490
HO-68 04 Mar 07:49:01 07:53:59 21° 120° (ESE) 07:59:14 435.675
CUTE-I 04 Mar 07:55:06 07:59:28 24° 274° (W) 08:03:43 437.470
BRITE-PL 04 Mar 08:06:06 08:08:56 18° 113° (ESE) 08:12:00 437.365/2234.400
GOMX 1 04 Mar 08:07:35 08:09:22 13° 116° (ESE) 08:11:24 467.674
VERMONT LUNAR 04 Mar 08:09:55 08:13:20 55° 185° (S) 08:16:45 437.305
PCSat 04 Mar 08:10:34 08:12:55 13° 75° (ENE) 08:15:34 145.827
PHONESAT 2.4 04 Mar 08:19:42 08:23:17 67° 191° (S) 08:26:54 2401.200-2431.200
DOVE 4 04 Mar 08:36:53 08:39:51 18° 113° (ESE) 08:43:05 437.250
CUBESAT XI-V 04 Mar 08:37:49 08:42:05 34° 252° (WSW) 08:46:16 437.345
CINEMA 3 04 Mar 08:40:31 08:41:31 11° 117° (ESE) 08:42:48 145.822/145.860
AAUSAT CUBESAT 2 04 Mar 08:42:04 08:44:41 17° 112° (ESE) 08:47:29 437.432
COMPASS 1 04 Mar 08:44:50 08:47:57 20° 111° (ESE) 08:51:12 437.405
O/OREOS (USA 219) 04 Mar 08:58:48 09:02:59 37° 285° (WNW) 09:07:08 437.305
PRISM 04 Mar 09:00:22 09:03:10 17° 248° (WSW) 09:05:50 437.425
STRAND 1 04 Mar 09:05:04 09:09:49 37° 250° (WSW) 09:14:30 437.568
SEEDS 04 Mar 09:12:24 09:16:34 50° 105° (ESE) 09:20:49 437.485
CANX-2 04 Mar 09:16:57 09:21:17 77° 103° (ESE) 09:25:42 2200.000
FUNcube-1 04 Mar 09:28:11 09:30:13 13° 115° (ESE) 09:32:30 145.935
ZACube-1 04 Mar 09:29:34 09:31:48 14° 114° (ESE) 09:34:16 437.345
GONETS M04 04 Mar 09:32:05 09:37:56 21° 98° (E) 09:44:18
HO-68 04 Mar 09:33:51 09:41:04 74° 284° (WNW) 09:48:21 435.675
CUTE 1.7 + AOD 2 04 Mar 09:35:26 09:39:46 72° 281° (W) 09:44:10 437.475
UKube-1 04 Mar 09:35:38 09:38:01 15° 114° (ESE) 09:40:36 .
GOMX 1 04 Mar 09:42:47 09:46:59 56° 279° (W) 09:51:29 467.674
DELFI C3 04 Mar 09:43:08 09:46:41 29° 108° (ESE) 09:50:20 145.870
BRITE-PL 04 Mar 09:43:20 09:47:13 35° 276° (W) 09:51:18 437.365/2234.400
VERMONT LUNAR 04 Mar 09:48:00 09:51:27 68° 168° (SSE) 09:54:55 437.305
UWE-3 04 Mar 09:49:08 09:52:53 28° 110° (ESE) 09:56:49 435.000/436.395/437.385
PCSat 04 Mar 09:50:22 09:55:47 73° 240° (WSW) 10:01:15 145.827
PHONESAT 2.4 04 Mar 09:58:24 10:01:58 57° 174° (S) 10:05:33 2401.200-2431.200
RS-15 04 Mar 09:59:40 10:04:25 14° 81° (E) 10:10:25 29.354- 29.394
DOVE 4 04 Mar 10:13:18 10:17:21 37° 276° (W) 10:21:37 437.250
CINEMA 3 04 Mar 10:13:42 10:18:06 72° 280° (W) 10:22:46 145.822/145.860
Oscar 11 04 Mar 10:15:08 10:19:31 89° 99° (E) 10:24:00 145.826/435.025
AAUSAT CUBESAT 2 04 Mar 10:16:01 10:20:03 40° 278° (W) 10:24:07 437.432
COMPASS 1 04 Mar 10:19:37 10:23:29 32° 276° (W) 10:27:21 437.405
CUBEBUG 2 04 Mar 10:27:51 10:32:17 90° 284° (WNW) 10:36:56 437.445
DX 1 04 Mar 10:41:07 10:45:29 85° 104° (ESE) 10:49:55 434.975-435.025
50 SAT 04 Mar 10:45:50 10:49:29 33° 108° (ESE) 10:53:15 437.505
AISAT 04 Mar 10:49:16 10:53:25 40° 108° (ESE) 10:57:38 437.250
SEEDS 04 Mar 10:50:45 10:52:46 13° 269° (W) 10:54:33 437.485
CUBEBUG 1 04 Mar 10:50:49 10:53:35 17° 113° (ESE) 10:56:31 437.445
VELOX 1 04 Mar 10:58:10 11:02:26 49° 107° (ESE) 11:06:47 145.980
HUMSAT D 04 Mar 10:58:45 11:03:00 70° 105° (ESE) 11:07:21 437.325/437.525
FUNcube-1 04 Mar 11:01:48 11:06:06 56° 279° (W) 11:10:35 145.935
ZACube-1 04 Mar 11:03:27 11:07:44 52° 279° (W) 11:12:12 437.345
UKube-1 04 Mar 11:09:37 11:13:49 47° 279° (W) 11:18:04 .
ESTCUBE 1 04 Mar 11:17:45 11:21:56 38° 108° (ESE) 11:26:11 437.505/2401.250
DELFI C3 04 Mar 11:18:46 11:21:56 20° 273° (W) 11:25:02 145.870
GONETS M04 04 Mar 11:25:06 11:33:58 75° 261° (W) 11:42:56
UWE-3 04 Mar 11:25:44 11:29:24 25° 273° (W) 11:33:08 435.000/436.395/437.385
VERMONT LUNAR 04 Mar 11:26:03 11:29:15 35° 333° (NNW) 11:32:28 437.305
HO-68 04 Mar 11:28:52 11:30:10 10° 265° (W) 11:30:47 435.675
UNISAT 6 04 Mar 11:29:55 11:34:22 39° 83° (E) 11:38:44 437.425
PHONESAT 2.4 04 Mar 11:36:54 11:40:28 59° 337° (NNW) 11:44:03 2401.200-2431.200
QB50P1 04 Mar 11:37:36 11:41:07 24° 86° (E) 11:44:41 145.935-145.965
PCSat 04 Mar 11:38:08 11:40:17 12° 221° (SW) 11:42:11 145.827
QB50P2 04 Mar 11:41:41 11:45:24 27° 85° (E) 11:49:09 145.880/145.840
BUGSAT 1 04 Mar 11:42:48 11:45:50 20° 87° (E) 11:49:00 437.445
TIGRISAT 04 Mar 11:54:16 11:59:03 71° 79° (E) 12:03:40 435.000
DUCHIFAT 1 04 Mar 11:55:34 11:59:37 38° 83° (E) 12:03:40 145.980
CUSAT 1 04 Mar 12:01:03 12:04:27 20° 97° (E) 12:08:47 437.405
RS-15 04 Mar 12:03:06 12:15:12 70° 65° (ENE) 12:27:22 29.354- 29.394
ANTELSAT 04 Mar 12:08:29 12:13:17 79° 258° (WSW) 12:17:54 437.575/2403.000
POPSAT HIP 1 04 Mar 12:16:48 12:21:10 69° 79° (E) 12:25:30 437.405
POLYITAN 1 04 Mar 12:16:49 12:21:13 71° 79° (ENE) 12:25:34 437.675
50 SAT 04 Mar 12:21:49 12:24:37 17° 272° (W) 12:27:20 437.505
CUBEBUG 1 04 Mar 12:25:34 12:29:41 40° 278° (W) 12:33:49 437.445
AISAT 04 Mar 12:27:19 12:30:15 17° 272° (W) 12:33:03 437.250
VELOX 1 04 Mar 12:37:01 12:39:22 14° 270° (W) 12:41:31 145.980
NANOSAT C BR1 04 Mar 12:39:36 12:43:57 64° 255° (WSW) 12:48:13 145.865
SPROUT 04 Mar 12:53:04 12:57:23 83° 283° (WNW) 13:01:46 437.525
TISAT 1 04 Mar 12:53:06 12:57:19 89° 94° (E) 13:01:38 437.305
ESTCUBE 1 04 Mar 12:55:44 12:58:59 19° 272° (W) 13:02:06 437.505/2401.250
SWISSCUBE 04 Mar 13:02:23 13:05:44 20° 113° (ESE) 13:09:15 437.505
UNISAT 6 04 Mar 13:07:22 13:10:54 20° 247° (WSW) 13:14:14 437.425
BEESAT 04 Mar 13:10:31 13:14:07 22° 112° (ESE) 13:17:51 436.000
QB50P1 04 Mar 13:13:16 13:17:00 27° 250° (WSW) 13:20:37 145.935-145.965
PHONESAT 2.4 04 Mar 13:16:44 13:18:30 13° 324° (NW) 13:20:11 2401.200-2431.200
BUGSAT 1 04 Mar 13:17:38 13:21:24 31° 251° (WSW) 13:25:09 437.445
QB50P2 04 Mar 13:17:39 13:21:13 24° 250° (WSW) 13:24:41 145.880/145.840
SO-50 04 Mar 13:17:54 13:20:35 16° 69° (ENE) 13:23:26 436.795
DANDE 04 Mar 13:18:53 13:23:11 86° 261° (W) 13:29:11 436.750
GONETS M04 04 Mar 13:28:14 13:32:45 14° 238° (WSW) 13:36:36
DUCHIFAT 1 04 Mar 13:32:13 13:35:13 18° 248° (WSW) 13:38:04 145.980
TIGRISAT 04 Mar 13:33:20 13:35:13 12° 244° (WSW) 13:36:50 435.000
ITUPSAT 1 04 Mar 13:37:37 13:42:06 40° 109° (ESE) 13:46:38 437.325
CUSAT 1 04 Mar 13:42:19 13:46:46 41° 251° (WSW) 13:52:38 437.405
POPSAT HIP 1 04 Mar 13:55:35 13:56:33 10° 245° (WSW) 13:57:15 437.405
POLYITAN 1 04 Mar 13:55:47 13:56:37 10° 244° (WSW) 13:57:12 437.675
BEESAT 3 04 Mar 13:57:58 14:00:06 14° 135° (SE) 14:02:21 437.485
RS-15 04 Mar 14:17:26 14:28:47 39° 221° (SW) 14:39:48 29.354- 29.394
BEESAT 2 04 Mar 14:24:07 14:27:13 21° 131° (SE) 14:30:23 435.950
AIST 2 04 Mar 14:29:40 14:30:39 11° 138° (SE) 14:31:48 435.215
Gurwin Techsat 1B 04 Mar 14:29:59 14:30:49 10° 93° (E) 14:32:03 435.225
SWISSCUBE 04 Mar 14:38:45 14:43:20 42° 278° (W) 14:47:55 437.505
KKS-1 04 Mar 14:39:27 14:43:26 33° 109° (ESE) 14:47:31 437.445
STARS 04 Mar 14:43:36 14:47:05 24° 111° (ESE) 14:50:42 437.465
Oscar 19 04 Mar 14:46:23 14:51:39 71° 79° (E) 14:56:52 437.125/150
BEESAT 04 Mar 14:47:16 14:51:45 37° 278° (W) 14:56:15 436.000
ITAMSAT 1 04 Mar 14:48:10 14:52:14 23° 87° (E) 14:56:23 435.822/435.867
SO-50 04 Mar 14:56:10 15:00:47 54° 236° (SW) 15:05:18 436.795
ITUPSAT 1 04 Mar 15:16:36 15:20:11 20° 273° (W) 15:23:38 437.325
YUBILEINY 04 Mar 15:29:19 15:37:03 35° 109° (ESE) 15:44:54 435.215
BEESAT 3 04 Mar 15:34:39 15:38:33 54° 297° (WNW) 15:42:25 437.485
AO-7 04 Mar 15:40:30 15:41:52 11° 95° (E) 15:44:07 29.400- 29.500
JUGNU 04 Mar 15:52:35 15:55:01 13° 3° (N) 15:57:28 437.505
BEESAT 2 04 Mar 16:01:52 16:05:27 31° 294° (WNW) 16:08:59 435.950
MOZHAYETS 4 04 Mar 16:02:04 16:03:54 12° 115° (ESE) 16:05:59
AIST 2 04 Mar 16:05:45 16:09:52 85° 299° (WNW) 16:14:00 435.215
Gurwin Techsat 1B 04 Mar 16:06:10 16:11:35 83° 254° (WSW) 16:16:56 435.225
KKS-1 04 Mar 16:16:44 16:20:10 21° 273° (W) 16:23:32 437.445
STARS 04 Mar 16:19:33 16:23:27 29° 276° (W) 16:27:20 437.465
ITAMSAT 1 04 Mar 16:27:00 16:31:54 40° 250° (WSW) 16:36:43 435.822/435.867
Oscar 19 04 Mar 16:27:39 16:30:28 14° 243° (WSW) 16:33:00 437.125/150
HORYU 2 04 Mar 16:35:46 16:40:14 53° 80° (E) 16:44:38 437.375
M-CUBED/EXP-1 PRIME 04 Mar 16:36:54 16:41:46 67° 110° (ESE) 16:46:33 437.505
AUBIESAT-1 04 Mar 16:37:52 16:42:40 62° 110° (ESE) 16:47:22 437.475
RS-15 04 Mar 16:38:33 16:46:14 18° 189° (S) 16:53:36 29.354- 29.394
PCSat 04 Mar 17:00:28 17:00:48 10° 141° (SE) 17:01:26 145.827
YUBILEINY 04 Mar 17:25:50 17:34:08 48° 270° (W) 17:42:17 435.215
AO-7 04 Mar 17:27:57 17:36:23 70° 76° (ENE) 17:44:45 29.400- 29.500
JAS-2 04 Mar 17:31:24 17:36:43 49° 82° (E) 17:41:46 435.910
MOZHAYETS 4 04 Mar 17:35:59 17:40:38 66° 281° (W) 17:45:20
JUGNU 04 Mar 17:41:22 17:43:11 11° 353° (N) 17:44:57 437.505
